World > North America > United States > Virginia > Castleton

Hourly Castleton, VA Regional Weather

Feedback E-mail the Weather

Quick WX

Castleton, VA Weather Maps

°F °C°F °C
Castleton Weather Map
UTC Time: 8/14/2022, 15:13
Your Time:

Castleton, VA Regional Weather

Expires:202208141500;;086326
ASUS41 KLWX 141416
RWRLWX

REGIONAL WEATHER ROUNDUP LEGACY
NATIONAL WEATHER SERVICE BALTIMORE MD/WASHINGTON DC
1000 AM EDT SUN AUG 14 2022

Note: "FAIR" indicates few or no clouds below 12,000 feet
with no significant weather and/or obstructions to visibility.
 TC=TEMPERATURE CELSIUS

 * =Non NWS site. Station does not report precipitation (e.g. rain,
    snow, etc.), thunder, or fog.


DCZ001-MDZ009-015-VAZ040>042-051-053>054-141500-
WASHINGTON METRO
  
CITY           SKY/WX    TMP DP  RH WIND       PRES   REMARKS
WASHINGTON NAT MOSUNNY   76  61  59 S10       30.07S                  
DULLES         MOSUNNY   76  58  53 S12       30.06S                  
ANDREWS AFB    SUNNY     76  58  53 S8        30.05S                  
FT BELVOIR     SUNNY     77  57  50 S9        30.05S                  
QUANTICO       SUNNY     75  61  61 SE6       30.07S                  
COLLEGE PARK*  SUNNY     77  59  53 S3        30.06F                  
LEESBURG*      SUNNY     75  61  60 S8        30.07F                  
MANASSAS*      MOSUNNY   75  61  61 S7        30.06F                  
GAITHERSBURG*  MOSUNNY   76  57  51 MISG      30.08S                  

$$


SKY/WX - Weather  TMP - Temperature  DP - Dew Point  RH - Humidity
WIND - Wind Direction/Speed PRES - Barometric Pressure VSB - Visibility
WCI - Wind Chill Index E13G22 Wind - East Wind 13 mph/Gusts of 22 mph

Trending Headlines

Castleton Radar Loop



Castleton Quick Facts


National Two Day Weather Forecast


E-mail the Castleton Weather Forecast

Voice your opinion or tell us about page issues...